Location: Niedergestelen
(46.3129°N, 7.7822°E)
Time: 12:50:12
(UTC+00:00)

Daily predictions for brighter satellites

Satellite Brightness Start Highest point End
(mag) Time Altitude Azimuth Time Altitude Azimuth Time Altitude Azimuth
BREEZE-M DEB (TANK) 4.1 15:58:03 10° W 16:01:47 76° N 16:14:22 10° ENE
MOS 1-B 4.4 16:09:00 10° SSE 16:14:46 70° ENE 16:20:34 10° N
Cosmos 2369 Rocket 3.0 16:09:59 10° N 16:14:57 29° NE 16:19:50 10° ESE
Cosmos 1943 Rocket 2.5 16:11:27 10° NNW 16:16:45 44° NE 16:22:04 10° SE
ADEOS Rocket 3.7 16:09:52 10° NNE 16:17:42 79° ESE 16:25:23 10° S
Cosmos 2221 4.2 16:15:04 10° SW 16:19:01 34° WNW 16:22:59 10° N
NOAA 12 4.4 16:14:07 10° SE 16:19:09 45° ENE 16:24:12 10° N
H-2A R/B 2.4 16:17:50 10° NNE 16:21:54 43° E 16:26:01 10° S
NOAA 6 4.0 16:20:41 10° SSE 16:25:49 82° ENE 16:30:59 10° NNW
Okean O Rocket 2.0 16:21:49 10° SE 16:25:56 42° ENE 16:30:04 10° N
Cosmos 1782 4.1 16:23:34 10° SE 16:26:38 22° E 16:29:43 10° NE
Okean-O 4.4 16:26:23 10° ENE 16:27:58 12° ENE 16:29:33 10° NE
CRYOSAT 2 4.4 16:24:28 10° N 16:29:21 64° E 16:34:12 10° S
ISS -2.6 16:27:03 10° WNW 16:30:07 31° N 16:32:58 11° ENE
H-2A R/B 3.4 16:26:35 10° S 16:30:22 63° WSW 16:34:17 10° NNW
Cosmos 1633 Rocket 3.2 16:26:20 10° N 16:30:37 51° ENE 16:34:51 10° SSE
Cosmos 1933 3.5 16:28:13 10° S 16:32:09 52° E 16:36:08 10° NNE
Cosmos 2218 Rocket 4.1 16:31:03 10° N 16:37:04 54° ENE 16:43:05 10° SSE
Cosmos 2366 rocket 4.1 16:31:59 10° N 16:38:02 53° ENE 16:44:00 10° SSE
Cosmos 1867 4.0 16:33:22 10° SW 16:38:44 60° NW 16:44:10 10° NNE
ERS-2 3.5 16:36:10 10° NE 16:38:52 20° E 16:41:37 10° SE
Meteor 1-25 Rocket 4.2 16:33:16 10° N 16:38:53 65° ENE 16:44:33 10° SSE
Envisat 3.3 16:37:02 10° S 16:42:05 72° WSW 16:47:12 10° NNW
Lacrosse 5 rocket 1.6 16:43:43 10° WSW 16:47:17 51° NW 16:50:15 14° NE
Cosmos 773 Rocket 4.0 16:43:11 10° S 16:48:24 69° ESE 16:53:41 10° NNE
SL-23 DEB 4.4 16:45:17 10° SW 16:48:41 50° SE 16:52:39 15° ENE
YAOGAN 6 3.2 16:47:37 10° S 16:51:12 61° W 16:54:47 10° NNW
Cosmos 1606 3.8 16:50:10 10° SSW 16:53:54 46° WNW 16:57:41 10° N
Cosmos 2297 4.3 16:48:56 10° NNW 16:54:34 63° WSW 17:00:11 10° S
OE (NEXTSAT) 4.3 16:52:40 10° W 16:56:09 87° S 16:58:30 19° E
AQUARIUS 4.1 16:51:50 10° SSE 16:56:19 85° ENE 17:00:50 10° NNW
FengYun 1-2 T 4.2 16:50:51 10° SSE 16:56:19 66° ENE 17:01:47 10° N
CZ-4B R/B 1.8 16:56:26 17° NE 16:58:28 36° E 17:01:26 10° SSE
SL-16 R/B 2.5 16:52:51 10° SW 16:58:30 71° WNW 17:04:10 10° NNE
Landsat 5 4.3 16:55:10 10° N 16:59:34 58° WNW 17:03:59 10° SSW
BREEZE-M DEB (TANK) 1.4 17:00:17 10° WSW 17:02:45 81° SSE 17:03:26 35° ENE
USA 215 4.2 16:59:20 16° ENE 17:03:33 31° SE 17:09:10 10° S
SMAP 3.4 17:00:43 10° S 17:05:20 70° WSW 17:10:01 10° NNW
Cosmos 1500 3.9 17:02:44 10° NNE 17:06:09 30° ENE 17:09:33 10° SE
YAOGAN 1 3.7 17:09:19 23° ENE 17:09:19 23° ENE 17:12:34 10° NNE
USA 238 DEB 4.4 17:04:24 10° S 17:09:56 30° ESE 17:13:06 21° ENE
USA 238 4.5 17:04:31 10° S 17:10:03 30° ESE 17:13:10 21° ENE
Cosmos 1656 Rocket 4.0 17:05:19 10° NNW 17:10:40 41° NE 17:15:55 10° SE
Cosmos 1151 Rocket 3.2 17:08:02 10° SSW 17:12:17 72° W 17:16:34 10° N
Cosmos 1470 Rocket 3.4 17:08:49 10° N 17:13:10 81° E 17:17:29 10° S
Cosmos 2263 4.2 17:14:02 10° NNW 17:19:36 60° ENE 17:25:07 10° SE
Cosmos 1515 Rocket 3.4 17:15:55 10° S 17:20:16 71° E 17:24:42 10° NNE
CZ-2C R/B 3.4 17:16:37 10° SE 17:21:09 37° ENE 17:25:33 10° N
Cosmos 1238 Rocket 3.5 17:21:32 10° N 17:25:17 36° ENE 17:29:44 10° SE
COSMO-SKYMED 1 2.6 17:23:06 18° NNE 17:26:09 54° E 17:30:23 10° S
TELKOM 3 4.1 17:24:10 10° WNW 17:26:18 34° NNW 17:26:18 34° NNW
Cosmos 1689 Rocket 4.3 17:29:02 15° SSE 17:29:02 15° SSE 17:29:45 10° SSE
USA 281 3.4 17:21:56 10° SE 17:28:07 46° NE 17:34:21 10° NNW
X-37B 0.9 17:25:50 10° WSW 17:28:58 57° SSE 17:29:28 49° SE
YAOGAN 3 4.4 17:24:56 10° SSE 17:29:17 79° ENE 17:33:40 10° N
Nadezhda 3 Rocket 4.1 17:23:33 10° SSE 17:29:40 51° E 17:35:48 10° NNE
SAR-Lupe-4 3.7 17:29:14 44° ENE 17:29:43 48° E 17:33:12 10° S
Helios 1A Rocket 3.5 17:33:25 35° NE 17:33:25 35° NE 17:36:23 10° N
Meteor 2-6 Rocket 4.2 17:27:18 10° S 17:32:42 54° E 17:37:14 14° NNE
Cosmos 2228 Rocket 3.3 17:28:33 10° SSE 17:32:53 47° E 17:34:29 32° NE
Meteor 1-4 Rocket 3.3 17:30:47 10° SSW 17:34:18 52° WNW 17:37:26 12° N
H-2A R/B 2.5 17:35:17 34° E 17:36:01 35° ENE 17:40:38 10° N
Cosmos 1812 2.9 17:33:01 10° SSE 17:36:35 48° E 17:36:35 48° E
USA 267 3.6 17:34:11 28° ENE 17:37:17 48° NNE 17:43:30 10° NW
Cosmos 1821 Rocket 3.9 17:31:45 10° N 17:37:59 65° E 17:44:16 10° SSE
Cosmos 1939 Rocket 2.8 17:34:40 10° S 17:38:34 82° W 17:42:31 10° NNW
CZ-4 R/B 4.3 17:36:14 10° SSE 17:40:21 72° ENE 17:44:29 10° N
CZ-4 R/B 1.7 17:41:26 44° NE 17:41:26 44° NE 17:44:45 10° N
Meteor 1-11 Rocket 4.0 17:35:29 10° N 17:41:01 45° ENE 17:46:38 10° SE
NOSS 3-3 (A) 4.5 17:34:19 10° NW 17:41:41 64° NE 17:47:58 19° ESE
PSLV R/B 3.9 17:42:20 52° E 17:42:31 53° E 17:46:28 10° S
BREEZE-M DEB (TANK) 3.6 17:40:08 10° SSW 17:42:53 23° SSE 17:42:53 23° SSE
Cosmos 44 Rocket 3.4 17:38:04 10° NNW 17:43:12 60° NE 17:45:09 36° ESE
Cosmos 1933 Rocket 3.8 17:38:45 10° NNW 17:43:13 72° W 17:47:38 10° S
CSL-04 Rocket 4.2 17:44:05 35° NE 17:44:05 35° NE 17:48:19 10° N
IRS-1C Rocket 4.0 17:39:35 10° SSE 17:44:52 88° ENE 17:50:11 10° NNW
Cosmos 546 4.5 17:42:07 10° WSW 17:45:56 75° SSE 17:46:15 69° ESE
SAR-Lupe-1 3.9 17:46:35 74° E 17:46:42 76° ESE 17:50:17 10° S
Lacrosse 4 Rocket 3.4 17:45:59 10° SSE 17:46:59 15° SSE 17:46:59 15° SSE
Cosmos 1680 Rocket 3.7 17:44:44 10° S 17:49:46 47° ESE 17:50:18 46° E
SL-24 R/B 3.5 17:49:34 57° NNE 17:50:17 87° E 17:53:56 10° SSW
Cosmos 1603 3.6 17:48:24 10° SSW 17:54:01 90° SE 17:56:56 30° NNE
CZ-2D R/B 3.3 17:51:37 10° S 17:55:25 75° WSW 17:59:16 10° NNW
Cosmos 1943 3.1 17:51:44 10° SSW 17:57:23 85° ESE 17:59:58 34° NNE
H-2A R/B 4.5 17:54:28 10° NNW 17:57:36 21° WNW 18:00:46 10° WSW
Cosmos 2369 Rocket 3.0 17:53:45 10° NW 17:59:16 53° WSW 18:04:43 10° S
Cosmos 1943 Rocket 4.0 17:55:28 10° NW 18:00:20 32° WSW 18:05:12 10° SSW
Meteor 1-5 Rocket 4.3 17:55:34 10° NNW 18:01:30 83° W 18:07:13 10° S
Okean O Rocket 4.2 17:59:08 10° SW 18:02:27 21° W 18:05:48 10° NW
Okean-O 2.5 17:59:19 10° SSE 18:03:44 89° E 18:08:12 10° NNW
Cosmos 1461 4.2 17:59:53 10° S 18:02:43 31° SSE 18:02:43 31° SSE
Cosmos 1371 Rocket 4.3 17:59:26 10° NNW 18:03:40 47° NNE 18:03:40 47° NNE
ARGOS 4.1 18:08:32 32° NNE 18:08:32 32° NNE 18:11:38 10° N
ISS -1.9 18:04:07 10° WNW 18:05:55 27° NW 18:05:55 27° NW
CENTAUR R/B 2.6 18:01:58 10° S 18:07:32 48° ESE 18:07:44 48° ESE
Cosmos 2112 Rocket 4.1 18:05:08 10° S 18:09:53 59° SE 18:09:53 59° SE
Cosmos 2056 Rocket 4.1 18:05:38 10° NNW 18:09:28 42° NNE 18:09:28 42° NNE
ERS-2 3.9 18:10:45 21° NNW 18:12:28 31° WNW 18:15:44 10° SW
SKYMED 2 4.4 18:11:44 22° N 18:14:13 48° WNW 18:18:23 10° SW
NOSS 3-2 (C) 3.5 18:10:13 10° SSW 18:15:09 51° SE 18:15:09 51° SE
Cosmos 1869 Rocket 3.7 18:13:28 10° NNW 18:22:43 - S 18:17:49 74° WNW
BREEZE-M DEB (TANK) 3.4 18:13:12 10° WSW 18:19:59 62° SSW 18:19:59 62° SSW
Meteor 1-27 Rocket 3.9 18:15:54 10° S 18:20:11 53° SSE 18:20:11 53° SSE
Meteor 1-10 Rocket 4.4 18:20:16 10° SSW 18:25:53 70° WNW 18:28:49 29° N
Lacrosse 5 rocket 3.6 18:24:33 10° WNW 18:25:53 15° NW 18:25:53 15° NW
Cosmos 371 Rocket 4.2 18:24:57 10° NNW 18:28:01 39° NNW 18:28:01 39° NNW
CZ-4B R/B 4.3 18:29:34 12° NW 18:30:25 13° WNW 18:31:56 10° W
NOSS 3-2 (A) 3.5 18:35:17 10° SW 18:40:58 71° NW 18:41:27 68° NNW
YAOGAN 1 4.2 18:46:28 30° NW 18:46:28 30° NW 18:49:09 10° NNW
USA 215 3.1 18:46:42 81° NNE 18:47:02 86° NW 18:53:35 10° WSW
MOS 1 Rocket 4.4 18:52:44 42° NW 18:53:51 49° WNW 18:59:00 10° SW
USA 238 DEB 3.8 18:53:50 10° SW 19:00:23 65° NW 19:00:35 65° NW
USA 238 3.8 18:53:55 10° SW 19:00:29 65° NW 19:00:39 65° NW
USA 281 4.3 19:06:34 10° S 19:12:40 40° WSW 19:18:49 10° NW
H-2A R/B 3.6 19:15:55 33° W 19:15:55 33° W 19:20:05 10° NNW
CZ-4 R/B 4.4 19:17:28 13° WNW 19:17:28 13° WNW 19:18:31 10° NW
USA 267 3.7 19:21:32 56° WNW 19:21:32 56° WNW 19:26:39 10° NW
CENTAUR R/B 4.3 19:52:26 10° WSW 19:54:58 25° W 19:54:58 25° W
